User: anonymous   Login
Location: Unspecified
(0.0000°N, 0.0000°E)
Time: 03:38:30
(UTC+00:00)
Language:

NOSS 3-4 (A) - Orbit

View from above orbital plane
View from above orbital plane
View from above satellite
View from above satellite

Ground track
Ground track

The orbit data is extracted from the following two-line orbital elements,

1 31701U 07027A   17171.89718804 0.00000000  00000-0  00000-0 0    03
2 31701  63.4029  73.9443 0187000  23.3511 336.6489 13.40730708    01
Epoch (UTC): 20 June 2017 21:31:57
Eccentricity: 0.0187000
inclination: 63.4029°
perigee height: 966 km
apogee height: 1246 km
right ascension of ascending node: 73.9443°
argument of perigee: 23.3511°
revolutions per day: 13.40730708
mean anomaly at epoch: 336.6489°
orbit number at epoch: 0

The dashed part of the orbit path shows where the satellite is in the earth's shadow,  

DLR